www.pogodaiklimat.ru

Погода и климат >> Архив погоды >> Эквадор >> Milagro


ПОГОДА в Milagro

  • Прогноз погоды в Milagro
  • Монитор погоды в Milagro
  • Климат города

АРХИВ ПОГОДЫ в Milagro

Время (UTC), дата Ветер
(напр.,м/с)
 
Видим.   Явления Облачность Т
(С)
Тd
(С)
f
(%)
Тe
(С)
Тes
(С)
Комфортность P
(гПа)
Po
(гПа)
Тmin
(С)
Tmax
(С)
R
(мм)
R24
(мм)
S
(см)
00 12.12 штиль 0 6000 м мгла {туман} 10/0 2000 м
[Ac und Ci sp]
+29.0 +22.6 68 +38 +38 очень
душно
1009.5 1009.5 +31.8
12 12.12 ЮЗ 10 5000 м мгла {туман} 10/10 300 м
[Sc]
+23.3 +20.9 86 +31 +31 очень
душно
1012.6 1012.6 +23.1 +31.8
15 12.12 ЮЗ 8 12 км мгла {туман} 10/10 300 м
[Sc]
+25.3 +21.3 79 +32 +32 очень
душно
1013.1 1013.1
18 12.12 Ю 4 12 км мгла {туман} 10/10 300 м
[Sc]
+27.4 +21.5 70 +35 +35 очень
душно
1010.7 1010.7
21 12.12 штиль 0 10 км мгла {туман} 10/10 300 м
[Sc]
+27.8 +22.8 74 +37 +37 очень
душно
1009.3 1009.3 +28.2
12 13.12 ЮЗ 8 6000 м мгла {туман} 10/10 300 м
[Sc]
+23.0 +20.7 87 +30 +30 очень
душно
1011.9 1011.9 +22.7 +28.2
15 13.12 ЮЗ 8 10 км мгла {туман} 10/10 300 м
[Sc]
+24.6 +21.2 81 +31 +31 очень
душно
1012.5 1012.5
18 13.12 Ю 8 12 км мгла {туман} 10/10 300 м
[Sc]
+26.4 +21.6 75 +34 +34 очень
душно
1010.3 1010.3
21 13.12 ЮЗ 4 12 км мгла {туман} 10/10 300 м
[Sc]
+27.6 +22.0 72 +36 +36 очень
душно
1007.7 1007.7 +29.0
00 14.12 ЮЗ 10 5000 м мгла {туман} 10/10 300 м
[Sc]
+25.8 +21.6 78 +33 +33 очень
душно
1008.4 1008.4 +29.0
12 14.12 ЮЗ 8 6000 м мгла {туман} 9/9 300 м
[Sc]
+23.2 +21.2 89 +31 +31 очень
душно
1010.4 1010.4 +22.3 +29.0
15 14.12 ЮЗ 8 10 км мгла {туман} 10/10 300 м
[Sc]
+25.6 +21.8 80 +33 +33 очень
душно
1010.4 1010.4
18 14.12 ЮЗ 6 15 км мгла {туман} 10/10 300 м
[Sc]
+29.0 +22.0 66 +37 +37 очень
душно
1008.6 1008.6
21 14.12 ЮЗ 4 15 км мгла {туман} 9/8 300 м
[Cu hum Ac trans]
+31.4 +22.0 57 +40 +41 очень
душно
1006.4 1006.4 +31.6
12 15.12 штиль 0 6000 м мгла {туман} 10/10 300 м
[Sc]
+23.2 +20.9 87 +31 +31 очень
душно
1010.1 1010.1 +22.8 +31.8
15 15.12 Ю 4 12 км мгла {туман} 10/10 300 м
[Sc]
+27.4 +22.0 72 +35 +35 очень
душно
1010.3 1010.3
18 15.12 ЮЗ 8 15 км мгла {туман} 8/8 300 м
[Cu hum]
+31.6 +23.4 62 +42 +43 опасность
перегрева
1008.2 1008.2
21 15.12 ЮЗ 8 15 км мгла {туман} 4/4 300 м
[Cu hum]
+33.1 +23.1 56 +44 +44 опасность
перегрева
1005.3 1005.3 +33.9
12 16.12 штиль 0 5000 м слабая морось {туман} 10/10 300 м
[Frnb Ns]
+23.2 +21.7 91 +31 +31 очень
душно
1099.9 1009.9 +23.2 +33.9 0.0
18 16.12 ЮЗ 4 18 км мгла {туман} 8/8 300 м
[Sc Ac trans]
+27.7 +22.3 72 +36 +39 очень
душно
1008.4 1008.4
12 17.12 ЮЗ 4 5000 м мгла {туман} 10/10 300 м
[Sc]
+26.9 +22.3 76 +35 +35 очень
душно
1006.8 1006.8 +29.2
18 17.12 ЮЗ 6 15 км мгла {туман} 9/8 300 м
[Sc Ac und]
+29.8 +23.1 67 +40 +41 очень
душно
1007.5 1007.5
21 17.12 ЮВ 4 18 км мгла {туман} 8/8 300 м
[Sc]
+29.8 +23.2 68 +40 +41 очень
душно
1005.8 1005.8 +30.4
00 18.12 ЮЗ 4 5000 м мгла {туман} 10/10 300 м
[St]
+28.6 +23.4 73 +39 +39 очень
душно
1007.0 1007.0 +31.2
12 18.12 ЮЗ 4 8000 м мгла {туман} 10/10 300 м
[Sc]
+23.1 +21.1 89 +31 +31 очень
душно
1009.1 1009.1 +22.6 +31.2
15 18.12 ЮВ 4 15 км мгла {туман} 10/6 300 м
[Sc]
+28.2 +22.7 72 +37 +39 очень
душно
1009.2 1009.2
18 18.12 СВ 4 15 км мгла {туман} 10/4 300 м
[Sc Ac und]
+32.2 +24.1 62 +44 +46 опасность
перегрева
1007.1 1007.1

 

Местоположение метеостанции Milagro (Эквадор): широта -2.12 долгота -79.60 высота над уровнем моря 13 м.

В архиве по умолчанию представлена погода в Milagro за последнюю неделю. Архивные данные за месяц целиком и за предыдущие месяцы, начиная с января 2011 года, Вы можете получить, выбрав интересующий диапазон дат из раскрывающегося списка и нажав кнопку "Ввод!".

Внимание! Время в таблицах - всемирное. Для получения местного времени необходимо прибавить поправку, которая в Milagro равна -5 ч.

Смотрите также архив погоды в соседних городах и на ближайших метеорологических станциях:

Погода в Guayaquil (Эквадор) (31 км)
Погода в Guayaquil Aeropuerto (Эквадор) (31 км)
Погода в Canar (Эквадор) (88 км)
Погода в Cuenca (Эквадор) (109 км)
Погода в Pichilingue (Эквадор) (115 км)
Погода в Riobamba (Эквадор) (117 км)
Погода в Corazon (Эквадор) (124 км)
Погода в Machala (Эквадор) (132 км)
Погода в Querochaca (Эквадор) (139 км)
Погода в Santa Rosa (Эквадор) (152 км)

Пояснения к столбцам:

Ветер - указаны скорость ветра в м/с - средняя за 10 мин, порывы в срок и между сроками (в фигурных скобках) и направление, откуда дует ветер: С - северный, СВ - северо-восточный, В - восточный, ЮВ - юго-восточный, Ю - южный, ЮЗ - юго-западный, З - западный, СЗ - северо-западный.
Видимость - горизонтальная дальность видимости в метрах или километрах. При видимости от 1 до 10 км при отсутствии осадков обычно наблюдается дымка, при ухудшении видимости до 1 км и менее - туман. В сухую погоду видимость может ухудшаться дымом, пылью или мглою.
Явления - указаны атмосферные явления, наблюдавшиеся в срок или в последний час перед сроком; фигурными скобками обозначены явления, наблюдавшиеся между сроками (за 1-3 часа до срока); квадратными скобками обозначены град или гололедные отложения с указанием их диаметра в мм.
Облачность - указаны через наклонную черту общая и нижняя облачность в баллах и высота нижней границы облаков в метрах; квадратными скобками обозначены формы облаков: Ci - перистые, Cs - перисто-слоистые, Cc - перисто-кучевые, Ac - высококучевые, As - высокослоистые, Sc - слоисто-кучевые, Ns - слоисто-дождевые, Cu - кучевые, Cb - кучево-дождевые. Подробнее классификацию облаков см. в Атласе облаков (PDF).
T - Температура воздуха - температура, измеренная на высоте 2 м над землей.
Td - Температура точки росы - температура, при понижении до которой содержащийся в воздухе водяной пар достигнет насыщения.
f - Относительная влажность воздуха - влажноcть воздуха, измеренная на высоте 2 м над землей.
Te - Эффективная температура - температура, которую ощущает одетый по сезону человек в тени. Характеристика душности погоды. При расчете учитывается влияние влажности воздуха и скорости ветра на теплоощущения человека.
Tes - Эффективная температура на солнце - температура, которую ощущает человек, с поправкой на солнечный нагрев. Характеристика знойности погоды. Зависит от высоты солнца над горизонтом, облачности и скорости ветра. Ночью, в пасмурную погоду, а также при ветре 12 м/с и более поправка равна нулю.
P - Атмосферное давление - приведенное к уровню моря атмосферное давление.
Po - Атмосферное давление - измеренное на уровне метеостанции атмосферное давление.
Tmin - Минимальная температура - минимум температуры воздуха на высоте 2 м над землей.
Tmax - Максимальная температура - максимум температуры воздуха на высоте 2 м над землей.
R - Количество осадков - Количество выпавших осадков за период времени, мм. При наведении курсора мыши на число - период времени, за который выпало указанное количество осадков.
R24 - Количество осадков - Количество выпавших осадков за 24 часа, мм.
S - Снежный покров - Высота снежного покрова, см. При наведении курсора мыши на число - состояние снежного покрова и степень покрытия местности в баллах.